"Pseudo-MPEC" for P21Jq1K

Created 2023 Sep 27 2:22:16 UT using Find_Orb

Click here for an explanation of pseudo-MPECs

 
 Astrometry: 
     P21Jq1K* C2023 09 13Fx,D3AvC?Rf7:/?7R?Sv-(`7Xs41^Zg6AstrometryA27TSgQM@4F52
     P21Jq1K  C2023 09 13M]KYVXredacted;0dapU?ii+'$Lry^cclick-lP^?JV7^)heretcF52
     P21Jq1K  C2023 09 13=+BMforo]wJVAnaL4tKL7XrhpklM(+0WnMbjexplanationTWM,[F52

Station data:
(F52) Pan-STARRS 2, Haleakala  (N20.707382 W156.255910)  US/Hawaii.
   Observers J. Bulger, T. Dukes, T. Lowe, A. Schultz, M. Willman. Measurers
   K. Chambers, S. Chastel, T. de Boer, L. Denneau, J. Fairlamb, H.
   Flewelling, M. Huber, C.-C. Lin, E. Magnier, Y. Ramanjooloo, R. Wainscoat,
   R. Weryk. 1.8-m Ritchey-Chrétien + CCD.

Orbital elements:  P21Jq1K
   Perihelion 2025 Jun 6.70740 +/- 886 TT = 16:58:39 (JD 2460833.20740)
Epoch 2023 Sep 13.0 TT = JDT 2460200.5                           AutoNEOCP
M 318.15448048 +/- 60               (J2000 ecliptic)
n   0.06613723 +/- 0.0936           Peri.  180.00827 +/- 80
a   6.05580686 +/- 5.71             Node   261.36304 +/- 60
e   0.3742111 +/- 0.237             Incl.   29.17509 +/- 42
P  14.90                   H 14.91  G  0.15   U 11.2  SR
q 3.78965618 +/- 2.05    Q 8.32195754 +/- 78.3
From 3 observations 2023 Sept. 13 (52.9 min); mean residual 0".05
Residuals in arcseconds: 
230913 F52  .01-  .03-    230913 F52  .03+  .09+    230913 F52  .02-  .06-    

Ephemerides (geocentric):
Date (UTC) HH   RA             Dec           delta  r     elong  mag " sig PA
---- --------  ------------   ------------  ------ ------ -----  --- --------
2023 09 27 02  23 03 31.425   +33 01 54.79  4.0508 4.9010 144.4 21.9  24d 117
2023 09 27 03  23 03 30.125   +33 01 44.09  4.0507 4.9009 144.4 21.9  24d 117
2023 09 27 04  23 03 28.826   +33 01 33.38  4.0506 4.9008 144.4 21.9  23d 117
2023 09 27 05  23 03 27.527   +33 01 22.65  4.0505 4.9007 144.4 21.9  23d 117
2023 09 27 06  23 03 26.229   +33 01 11.91  4.0504 4.9005 144.4 21.9  23d 117
2023 09 27 07  23 03 24.932   +33 01 01.15  4.0503 4.9004 144.4 21.9  23d 117
2023 09 27 08  23 03 23.635   +33 00 50.38  4.0502 4.9003 144.4 21.9  23d 117
2023 09 27 09  23 03 22.339   +33 00 39.60  4.0501 4.9002 144.4 21.9  23d 117
2023 09 27 10  23 03 21.044   +33 00 28.80  4.0500 4.9001 144.4 21.9  23d 117
2023 09 27 11  23 03 19.749   +33 00 17.99  4.0499 4.9000 144.4 21.9  23d 116
2023 09 27 12  23 03 18.455   +33 00 07.16  4.0498 4.8998 144.4 21.9  23d 116
2023 09 27 13  23 03 17.162   +32 59 56.32  4.0498 4.8997 144.4 21.9  23d 116
2023 09 27 14  23 03 15.869   +32 59 45.46  4.0497 4.8996 144.4 21.9  23d 116
2023 09 27 15  23 03 14.577   +32 59 34.59  4.0496 4.8995 144.4 21.9  23d 116
2023 09 27 16  23 03 13.286   +32 59 23.71  4.0495 4.8994 144.4 21.9  23d 116
2023 09 27 17  23 03 11.995   +32 59 12.81  4.0494 4.8993 144.4 21.9  23d 116
2023 09 27 18  23 03 10.705   +32 59 01.90  4.0493 4.8991 144.4 21.9  23d 116
2023 09 27 19  23 03 09.415   +32 58 50.98  4.0492 4.8990 144.4 21.9  23d 116
2023 09 27 20  23 03 08.127   +32 58 40.04  4.0491 4.8989 144.4 21.9  23d 116
2023 09 27 21  23 03 06.838   +32 58 29.09  4.0490 4.8988 144.4 21.9  23d 116
2023 09 27 22  23 03 05.551   +32 58 18.12  4.0489 4.8987 144.4 21.9  23d 116
2023 09 27 23  23 03 04.264   +32 58 07.14  4.0489 4.8986 144.4 21.9  23d 116
2023 09 28 00  23 03 02.978   +32 57 56.15  4.0488 4.8985 144.4 21.9  23d 116
2023 09 28 01  23 03 01.693   +32 57 45.14  4.0487 4.8983 144.4 21.9  23d 116
2023 09 28 02  23 03 00.408   +32 57 34.12  4.0486 4.8982 144.4 21.9  23d 116
2023 09 28 03  23 02 59.124   +32 57 23.08  4.0485 4.8981 144.4 21.9  23d 116
2023 09 28 04  23 02 57.840   +32 57 12.03  4.0484 4.8980 144.4 21.9  23d 116
2023 09 28 05  23 02 56.558   +32 57 00.97  4.0483 4.8979 144.4 21.9  23d 116
2023 09 28 06  23 02 55.276   +32 56 49.89  4.0482 4.8978 144.4 21.9  23d 116
2023 09 28 07  23 02 53.994   +32 56 38.80  4.0482 4.8976 144.4 21.9  23d 116
2023 09 28 08  23 02 52.714   +32 56 27.69  4.0481 4.8975 144.4 21.9  23d 116
2023 09 28 09  23 02 51.434   +32 56 16.57  4.0480 4.8974 144.4 21.9  23d 116
2023 09 28 10  23 02 50.154   +32 56 05.44  4.0479 4.8973 144.4 21.9  23d 116
2023 09 28 11  23 02 48.876   +32 55 54.29  4.0478 4.8972 144.4 21.9  23d 116
2023 09 28 12  23 02 47.598   +32 55 43.13  4.0477 4.8971 144.4 21.9  23d 116
2023 09 28 13  23 02 46.321   +32 55 31.96  4.0477 4.8969 144.4 21.9  23d 116
2023 09 28 14  23 02 45.044   +32 55 20.77  4.0476 4.8968 144.4 21.9  23d 116
2023 09 28 15  23 02 43.768   +32 55 09.57  4.0475 4.8967 144.3 21.9  23d 116
2023 09 28 16  23 02 42.493   +32 54 58.35  4.0474 4.8966 144.3 21.9  23d 116
2023 09 28 17  23 02 41.219   +32 54 47.12  4.0473 4.8965 144.3 21.9  23d 116
2023 09 28 18  23 02 39.945   +32 54 35.88  4.0473 4.8964 144.3 21.9  23d 116
2023 09 28 19  23 02 38.672   +32 54 24.62  4.0472 4.8963 144.3 21.9  23d 116
2023 09 28 20  23 02 37.400   +32 54 13.35  4.0471 4.8961 144.3 21.9  23d 115
2023 09 28 21  23 02 36.128   +32 54 02.07  4.0470 4.8960 144.3 21.9  23d 115
2023 09 28 22  23 02 34.857   +32 53 50.77  4.0469 4.8959 144.3 21.9  23d 115
2023 09 28 23  23 02 33.587   +32 53 39.46  4.0469 4.8958 144.3 21.9  23d 115
2023 09 29 00  23 02 32.317   +32 53 28.14  4.0468 4.8957 144.3 21.9  23d 115
2023 09 29 01  23 02 31.049   +32 53 16.80  4.0467 4.8956 144.3 21.9  23d 115